Regional Weather Roundup
Issued by NWS Sioux Falls, SD

Home | Current Version | Previous Version | Graphics & Text | Print | Product List | Glossary On
Versions: 1 2 3 4 5 6 7 8 9 10 11 12 13 14 15 16 17 18 19 20 21 22 23 24 25 26 27 28 29 30 31 32 33 34 35 36 37 38 39 40 41 42 43 44 45 46 47 48 49 50
000
ASUS43 KFSD 231702
RWRFSD

WEATHER ROUNDUP FOR SE SOUTH DAKOTA/SW MINNESOTA/NW IOWA
NATIONAL WEATHER SERVICE SIOUX FALLS SD
1200 PM CDT SUN JUL 23 2017

NOTE: "FAIR" INDICATES FEW OR NO CLOUDS BELOW 12,000 FEET WITH NO
SIGNIFICANT WEATHER AND OR OBSTRUCTIONS TO VISIBILITY.


SDZ038>040-050-052>070-231800-
SOUTHEAST SOUTH DAKOTA

CITY           SKY/WX    TMP DP  RH WIND       PRES   REMARKS
BROOKINGS      MOSUNNY   73  58  59 N15G22    30.03S
CHAMBERLAIN    SUNNY     83  54  36 NW9       30.06S
HURON          SUNNY     76  60  57 N15       30.05S
MADISON        FAIR      72  59  64 N15       30.05R
MITCHELL       SUNNY     77  60  55 N15       30.05S
SIOUX FALLS    MOSUNNY   78  62  57 N10       30.02R
WINNER         FAIR      83  53  35 MISG      30.08S
YANKTON        SUNNY     81  57  43 NW16      30.02F
$$

MNZ071-072-080-081-089-090-097-098-231800-
SOUTHWEST MINNESOTA

CITY           SKY/WX    TMP DP  RH WIND       PRES   REMARKS
FAIRMONT       MOSUNNY   74  60  61 NW17G23   29.97S
JACKSON        MOSUNNY   72  59  64 NW17G23   30.00R
MARSHALL       PTSUNNY   70  60  70 N17       30.01R
MONTEVIDEO     CLOUDY    72  61  68 N13       30.01R
PIPESTONE      MOSUNNY   75  57  53 N15G22    30.02S
REDWOOD FALLS  CLOUDY    71  58  63 NW10      29.98R
WINDOM         SUNNY     72  59  64 NW15      30.00R
WORTHINGTON    MOSUNNY   73  58  59 NW14      30.02R
$$

IAZ001>003-012>014-020>022-031-032-NEZ013-014-SDZ071-231800-
NORTHWEST IOWA

CITY           SKY/WX    TMP DP  RH WIND       PRES   REMARKS
CHEROKEE       SUNNY     78  63  58 N12       29.99S
DENISON        SUNNY     81  63  54 N9        30.00R
ESTHERVILLE    SUNNY     75  60  59 NW10G23   29.98R
ORANGE CITY    SUNNY     77  63  61 N8        30.01S
SHELDON        SUNNY     75  61  60 N12G22    29.99S
SIOUX CITY     SUNNY     84  58  40 N14       29.98F
SPENCER        SUNNY     78  58  49 N14       29.99R
STORM LAKE     SUNNY     77  61  57 N9G16     29.99S
$$

ABBREVIATIONS USED IN REMARKS
   TC - TEMPERATURE IN CELSIUS
  WCI - WIND CHILL INDEX
   HX - HEAT INDEX
  VSB - VISIBILITY





USA.gov is the U.S. government's official web portal to all federal, state and local government web resources and services.